This is the latest recevied weather packets stored in our database for station/object OE3PDB-3. If no packets are shown the sender has not sent any weather packets the latest 1 day(s).
| Time | Temp. | Humidity | Pressure | Rain* | Wind** | Luminosity | Snow |
|---|---|---|---|---|---|---|---|
| 1777990844 | 26.67° C | 30% | 1004.7 hPa | 0 mm | 0 m/s | - | - |
| 1777990244 | 26.67° C | 30% | 1004.8 hPa | 0 mm | 0 m/s | - | - |
| 1777989644 | 26.67° C | 29% | 1004.9 hPa | 0 mm | 0 m/s | - | - |
| 1777989044 | 26.67° C | 29% | 1004.8 hPa | 0 mm | 0 m/s | - | - |
| 1777988444 | 26.67° C | 27% | 1004.9 hPa | 0 mm | 0 m/s | - | - |
| 1777987844 | 26.67° C | 27% | 1004.9 hPa | 0 mm | 0 m/s | - | - |
| 1777987244 | 27.22° C | 27% | 1005 hPa | 0 mm | 0 m/s | - | - |
| 1777986644 | 26.67° C | 27% | 1005.1 hPa | 0 mm | 0 m/s | - | - |
| 1777986044 | 26.67° C | 27% | 1005.3 hPa | 0 mm | 0 m/s | - | - |
| 1777985444 | 26.11° C | 27% | 1005.4 hPa | 0 mm | 0 m/s | - | - |
| 1777984844 | 26.11° C | 28% | 1005.7 hPa | 0 mm | 0 m/s | - | - |
| 1777984244 | 26.11° C | 28% | 1005.7 hPa | 0 mm | 0 m/s | - | - |
| 1777983644 | 26.11° C | 29% | 1005.8 hPa | 0 mm | 0 m/s | - | - |
| 1777983044 | 25.56° C | 30% | 1006 hPa | 0 mm | 0 m/s | - | - |
| 1777982444 | 25° C | 32% | 1006.2 hPa | 0 mm | 0 m/s | - | - |
| 1777981844 | 24.44° C | 35% | 1006.4 hPa | 0 mm | 0 m/s | - | - |
| 1777981244 | 23.89° C | 37% | 1006.7 hPa | 0 mm | 0 m/s | - | - |
| 1777980644 | 23.33° C | 41% | 1006.9 hPa | 0 mm | 0 m/s | - | - |
| 1777980044 | 22.78° C | 41% | 1006.9 hPa | 0 mm | 0 m/s | - | - |
| 1777979444 | 22.78° C | 43% | 1007 hPa | 0 mm | 0 m/s | - | - |
| 1777978844 | 22.22° C | 43% | 1007.2 hPa | 0 mm | 0 m/s | - | - |
| 1777978244 | 22.22° C | 45% | 1007.4 hPa | 0 mm | 0 m/s | - | - |
| 1777977644 | 21.67° C | 45% | 1007.4 hPa | 0 mm | 0 m/s | - | - |
| 1777977044 | 21.11° C | 45% | 1007.5 hPa | 0 mm | 0 m/s | - | - |
| 1777975844 | 21.11° C | 44% | 1008 hPa | 0 mm | 0 m/s | - | - |
* Rain latest hour (hover to see other rain measurements)
** Current wind speed in m/s (hover to see current wind gust speed)